Погода в Мьельбю

Швеция     58°19′36″N   15°07′33″E
темп.,
°C
ветер,
м/с
пор.,
м/с
влажн.,
%
обл.,
%
осадки,
мм/ч
давл.,
гПа
погр.,
м
25 января, пн
пн2501:00−1с2493100 0.0 997322
04:00−1ссз3588100 0.0 996458
07:00−1ссз2586100 0.0 996475
10:00−1ссз3584100 0.0 997436
13:000сз3680100 0.0 998518
16:00−1сз3683100 0.0 999490
19:00−1сз2586100 0.1 1001433
22:00−2зсз2584100 0.0 1002415
26 января, вт
вт2601:00−2зсз3681100 0.0 1003489
04:00−3сз3693100 0.4 1004394
07:00−2сз3781100 0.9 1004491
10:00−2сз3676100 0.0 1005462
13:00−1сз476670 0.0 1006554
16:00−2сз38700 0.0 1006425
19:00−3сз37740 0.0 1007289
22:00−4сз26800 0.0 1006211
27 января, ср
ср2701:00−4зсз24880 0.0 1007159
04:00−4зсз24911 0.0 1006139
07:00−5сз12922 0.0 100680
10:00−4сз368327 0.0 1006431
13:00−3зсз477325 0.0 1007556
16:00−4зсз387950 0.0 1007515
19:00−4зсз388025 0.0 1007441
22:00−5зсз27830 0.0 1007296
28 января, чт
чт2801:00−5зсз27860 0.0 1006234
04:00−5зсз27840 0.0 1006236
07:00−6зсз24810 0.0 1005129
10:00−5зсз25760 0.0 1004277
13:00−3зсз24730 0.0 1003480
16:00−5зсз128225 0.0 100234
19:00−5зюз118512 0.0 100121
22:00−6ююз11870 0.0 100021
29 января, пт
пт2901:00−6юв128321 0.0 99928
04:00−6вюв2380100 0.0 996107
07:00−5в2576100 0.0 993234
10:00−5всв4791100 0.3 991337
13:00−4св61191100 1.6 988570
16:00−6св71392100 3.3 987539
19:00−7ссв71593100 8.0 986591
22:00−8с71493100 4.4 987599